Weather History for KVAF - April, 2014

Change the Weather History Date:

Sunday, April 6, 2014

  Actual Average Record
Temperature  
Mean Temperature 73 °F -  
Max Temperature 75 °F - - ()
Min Temperature 69 °F - - ()
Cooling Degree Days 8    
Growing Degree Days 23 (Base 50)    
Moisture  
Dew Point 73 °F    
Average Humidity 97    
Maximum Humidity 100    
Minimum Humidity 89    
Precipitation  
Precipitation 0.00 in - - ()
Sea Level Pressure  
Sea Level Pressure 29.73 in    
Wind  
Wind Speed 16 mph (South)    
Max Wind Speed 23 mph    
Max Gust Speed 21 mph    
Visibility 4 miles    
Events Fog    
T = Trace of Precipitation, MM = Missing Value Source: NWS Daily Summary

Daily Weather History Graph

Daily Weather History Graph

Search for Another Location

Airport or City:

Trip Planner

Search our weather history database for the weather conditions in past years. The results will help you decide how hot, cold, wet, or windy it might be!

Date:

Astronomy

Apr. 06, 2014 Rise Set
Actual Time 7:03 AM CDT 7:38 PM CDT
Civil Twilight 6:39 AM CDT 8:02 PM CDT
Nautical Twilight 6:12 AM CDT 8:29 PM CDT
Astronomical Twilight 5:44 AM CDT 8:57 PM CDT
Moon 12:21 PM CDT (4/6) 1:18 AM CDT (4/6)
Length of Visible Light 13h 22m
Length of Day
12h 34m
Waxing Crescent, 44% of the Moon is Illuminated
Apr 6
Waxing Crescent
Apr 7
First Quarter
Apr 15
Full
Apr 22
Last Quarter
Apr 29
New

Hourly Weather History & Observations

Time (CDT) Temp. Dew Point Humidity Pressure Visibility Wind Dir Wind Speed Gust Speed Precip Events Conditions
12:15 AM 73.4 °F 73.4 °F 100% 29.83 in 1.8 mi SSE 15.0 mph - N/A   Mostly Cloudy
12:35 AM 73.4 °F 73.4 °F 100% 29.82 in 1.8 mi SSE 16.1 mph - N/A   Mostly Cloudy
12:55 AM 73.4 °F 73.4 °F 100% 29.82 in 1.2 mi SSE 15.0 mph - N/A   Mostly Cloudy
1:15 AM 73.4 °F 73.4 °F 100% 29.81 in 1.5 mi South 15.0 mph - N/A   Mostly Cloudy
1:35 AM 73.4 °F 73.4 °F 100% 29.81 in 1.5 mi SSE 13.8 mph - N/A   Mostly Cloudy
1:55 AM 73.4 °F 73.4 °F 100% 29.81 in 0.8 mi South 15.0 mph - N/A   Overcast
2:15 AM 73.4 °F 73.4 °F 100% 29.81 in 0.2 mi South 12.7 mph - N/A Fog Fog
2:35 AM 73.4 °F 73.4 °F 100% 29.81 in 0.2 mi South 13.8 mph - N/A Fog Fog
2:55 AM 73.4 °F 73.4 °F 100% 29.81 in 0.2 mi South 12.7 mph - N/A Fog Fog
3:15 AM 73.4 °F 73.4 °F 100% 29.80 in 0.5 mi SSE 15.0 mph - N/A Fog Fog
3:35 AM 73.4 °F 73.4 °F 100% 29.79 in 1.8 mi SSE 13.8 mph - N/A   Mostly Cloudy
3:55 AM 73.4 °F 73.4 °F 100% 29.80 in 2.0 mi SSE 11.5 mph - N/A   Partly Cloudy
4:15 AM 73.4 °F 73.4 °F 100% 29.78 in 2.5 mi SSE 15.0 mph - N/A   Scattered Clouds
4:35 AM 73.4 °F 73.4 °F 100% 29.77 in 3.0 mi SSE 17.3 mph - N/A   Mostly Cloudy
4:55 AM 73.4 °F 73.4 °F 100% 29.78 in - SE 15.0 mph - N/A   Mostly Cloudy
5:15 AM 73.4 °F 73.4 °F 100% 29.75 in 3.0 mi SE 16.1 mph - N/A   Overcast
5:35 AM 73.4 °F 73.4 °F 100% 29.77 in 3.0 mi SSE 12.7 mph 20.7 mph N/A   Mostly Cloudy
5:55 AM 73.4 °F 73.4 °F 100% 29.75 in 4.0 mi SE 19.6 mph - N/A   Mostly Cloudy
6:15 AM 73.4 °F 73.4 °F 100% 29.78 in 3.0 mi SE 13.8 mph - N/A   Mostly Cloudy
6:35 AM 73.4 °F 73.4 °F 100% 29.78 in 4.0 mi SSE 12.7 mph - N/A   Mostly Cloudy
6:55 AM 73.4 °F 73.4 °F 100% 29.79 in 4.0 mi South 13.8 mph - N/A   Mostly Cloudy
7:15 AM 73.4 °F 73.4 °F 100% 29.78 in 3.0 mi South 17.3 mph - N/A   Mostly Cloudy
7:35 AM 73.4 °F 73.4 °F 100% 29.79 in 3.0 mi South 23.0 mph - N/A   Scattered Clouds
7:55 AM 73.4 °F 73.4 °F 100% 29.78 in 4.0 mi South 23.0 mph - N/A   Mostly Cloudy
8:15 AM 73.4 °F 73.4 °F 100% 29.79 in 4.0 mi SSE 20.7 mph - N/A   Mostly Cloudy
8:35 AM 73.4 °F 73.4 °F 100% 29.78 in 4.0 mi SSE 19.6 mph - N/A   Mostly Cloudy
8:55 AM 73.4 °F 73.4 °F 100% 29.77 in 4.0 mi South 20.7 mph - N/A   Mostly Cloudy
9:15 AM 75.2 °F 73.4 °F 94% 29.78 in 4.0 mi SSE 19.6 mph - N/A   Scattered Clouds
9:35 AM 73.4 °F 71.6 °F 94% 29.77 in 4.0 mi SSE 19.6 mph - N/A   Partly Cloudy
9:55 AM 73.4 °F 73.4 °F 100% 29.77 in 4.0 mi SSE 18.4 mph - N/A   Clear
10:15 AM 75.2 °F 73.4 °F 94% 29.77 in 4.0 mi SSE 18.4 mph - N/A   Clear
10:35 AM 75.2 °F 71.6 °F 89% 29.77 in 5.0 mi SSE 17.3 mph - N/A   Clear
10:55 AM 75.2 °F 71.6 °F 89% 29.76 in 5.0 mi SSE 17.3 mph - N/A   Clear
11:15 AM 75.2 °F 71.6 °F 89% 29.76 in 5.0 mi SSE 17.3 mph - N/A   Clear
11:35 AM 75.2 °F 71.6 °F 89% 29.76 in 4.0 mi South 16.1 mph - N/A   Clear
11:55 AM 75.2 °F 71.6 °F 89% 29.75 in - South 17.3 mph - N/A   Unknown
12:15 PM 75.2 °F 71.6 °F 89% 29.75 in 4.0 mi South 18.4 mph - N/A   Clear
12:35 PM 75.2 °F 73.4 °F 94% 29.74 in 4.0 mi South 19.6 mph - N/A   Clear
12:55 PM 75.2 °F 73.4 °F 94% 29.72 in 4.0 mi South 19.6 mph - N/A   Clear
1:15 PM 75.2 °F 73.4 °F 94% 29.72 in 4.0 mi South 19.6 mph - N/A   Clear
1:35 PM 75.2 °F 73.4 °F 94% 29.70 in 4.0 mi South 19.6 mph - N/A   Clear
1:55 PM 75.2 °F 73.4 °F 94% 29.69 in 4.0 mi SSW 20.7 mph - N/A   Clear
2:15 PM 75.2 °F 73.4 °F 94% 29.68 in 5.0 mi SSW 20.7 mph - N/A   Clear
2:35 PM 75.2 °F 73.4 °F 94% 29.68 in 4.0 mi SSW 18.4 mph - N/A   Clear
2:55 PM 75.2 °F 73.4 °F 94% 29.67 in 5.0 mi SSW 20.7 mph - N/A   Clear
3:15 PM 75.2 °F 73.4 °F 94% 29.66 in 6.0 mi SSW 20.7 mph - N/A   Clear
3:35 PM 75.2 °F 73.4 °F 94% 29.66 in 5.0 mi SSW 18.4 mph - N/A   Clear
3:55 PM 75.2 °F 73.4 °F 94% 29.65 in 5.0 mi SSW 18.4 mph - N/A   Scattered Clouds
4:15 PM 75.2 °F 73.4 °F 94% 29.64 in 5.0 mi SSW 18.4 mph - N/A   Mostly Cloudy
4:35 PM 75.2 °F 73.4 °F 94% 29.64 in 5.0 mi SSW 18.4 mph - N/A   Scattered Clouds
4:55 PM 75.2 °F 73.4 °F 94% 29.63 in 5.0 mi South 16.1 mph - N/A   Partly Cloudy
5:15 PM 75.2 °F 73.4 °F 94% 29.64 in 5.0 mi SSW 15.0 mph - N/A   Scattered Clouds
5:35 PM 75.2 °F 73.4 °F 94% 29.64 in 4.0 mi SSW 15.0 mph - N/A   Mostly Cloudy
5:55 PM 75.2 °F 73.4 °F 94% 29.64 in 4.0 mi SSW 17.3 mph - N/A   Mostly Cloudy
6:15 PM 75.2 °F 73.4 °F 94% 29.64 in 4.0 mi SSW 15.0 mph - N/A   Mostly Cloudy
6:35 PM 75.2 °F 73.4 °F 94% 29.65 in 4.0 mi SSW 17.3 mph - N/A   Mostly Cloudy
6:55 PM 75.2 °F 73.4 °F 94% 29.64 in 3.0 mi SSW 16.1 mph - N/A   Mostly Cloudy
7:15 PM 75.2 °F 73.4 °F 94% 29.65 in 3.0 mi SSW 16.1 mph - N/A   Mostly Cloudy
7:35 PM 75.2 °F 73.4 °F 94% 29.66 in 3.0 mi SSW 15.0 mph - N/A   Mostly Cloudy
7:55 PM 75.2 °F 75.2 °F 100% 29.66 in 4.0 mi SSW 16.1 mph - N/A   Overcast
8:15 PM 75.2 °F 75.2 °F 100% 29.67 in 4.0 mi SSW 13.8 mph - N/A   Overcast
8:35 PM 75.2 °F 75.2 °F 100% 29.67 in 4.0 mi SSW 16.1 mph - N/A   Overcast
8:55 PM 75.2 °F 75.2 °F 100% 29.67 in 3.0 mi SSW 13.8 mph - N/A   Overcast
9:15 PM 75.2 °F 75.2 °F 100% 29.68 in 3.0 mi SSW 16.1 mph - N/A   Overcast
9:35 PM 75.2 °F 75.2 °F 100% 29.68 in 3.0 mi SSW 17.3 mph - N/A   Mostly Cloudy
9:55 PM 75.2 °F 75.2 °F 100% 29.69 in 3.0 mi SSW 17.3 mph - N/A   Scattered Clouds
10:15 PM 75.2 °F 75.2 °F 100% 29.69 in 3.0 mi SSW 15.0 mph - N/A   Clear
10:35 PM 75.2 °F 75.2 °F 100% 29.70 in 3.0 mi SSW 15.0 mph - N/A   Partly Cloudy
10:55 PM 75.2 °F 75.2 °F 100% 29.70 in 3.0 mi SSW 16.1 mph - N/A   Mostly Cloudy
11:15 PM 71.6 °F 69.8 °F 94% 29.72 in 9.0 mi Variable 4.6 mph 12.7 mph N/A   Overcast
11:35 PM 69.8 °F 68.0 °F 94% 29.73 in 8.0 mi Variable 8.1 mph 19.6 mph N/A   Mostly Cloudy